Wind_Speed
13 13 12 11 11 10 9 7 6 6 6 6 6 8 8 9 9 10 11 11 10 10 9 9 10 10 9 8 8 7 6 6 5 4 4 4 3 3 3 3 3 4 5 6
12 12 13 13 12 12 10 10 9 8 9 10 9 9 10 11 10 10 10 9 8 10 9 8 9 9 9 8 7 7 6 5 4 4 3 3 2 2 2 2 3 3 4 5
12 11 12 12 12 12 12 13 12 11 11 11 12 12 12 12 12 12 12 11 9 11 11 10 8 8 8 8 7 6 6 5 4 4 3 3 2 0 1 2 2 3 4 5
13 13 13 13 13 12 12 12 13 13 13 13 13 15 13 13 14 13 14 13 11 11 12 10 7 7 8 7 7 6 5 6 5 4 4 3 3 3 2 2 3 3 4 5
13 13 13 14 13 13 14 14 14 14 15 16 16 17 15 15 16 15 14 13 11 12 11 9 8 7 7 7 6 5 5 5 5 5 4 3 2 2 3 4 4 4 4 5
13 13 13 13 13 14 15 16 17 17 18 17 16 18 18 17 17 17 14 12 12 12 11 10 9 9 7 7 7 6 5 6 5 5 5 4 4 3 3 4 4 5 6 5
13 14 14 15 14 14 16 17 18 18 17 16 16 18 18 17 17 19 16 13 13 13 13 12 11 11 9 8 8 7 6 6 6 6 6 6 5 5 5 6 6 6 6 7
14 13 14 15 15 15 17 18 18 18 17 17 18 19 17 17 17 18 17 15 14 14 14 13 12 11 10 9 9 8 8 8 8 8 7 7 7 7 7 8 8 8 9 9
15 14 14 15 16 17 17 18 18 19 20 20 20 20 17 17 16 16 16 15 14 15 15 14 14 14 12 12 11 11 10 10 10 9 9 9 9 9 9 9 9 9 10 10
17 16 16 16 16 17 18 18 19 21 22 23 22 20 16 16 16 16 16 15 15 15 15 15 15 14 12 12 13 12 11 11 11 11 11 11 11 11 11 11 11 11 11 12
18 18 18 17 17 17 18 20 21 21 22 24 23 21 18 17 18 19 18 18 16 16 17 16 15 15 14 13 14 14 13 13 13 13 13 13 13 12 13 13 14 14 14 14
21 21 21 20 18 19 20 21 22 23 23 23 24 22 20 20 20 20 20 19 18 18 17 16 15 15 16 16 16 15 14 15 15 16 16 16 16 15 15 15 16 17 17 17
23 24 23 22 21 21 21 22 23 24 25 25 26 25 22 22 22 22 22 21 20 19 18 18 18 18 18 18 18 18 18 18 18 19 18 18 18 18 18 18 19 19 19 20
26 27 26 25 23 24 24 24 25 27 28 27 27 27 26 25 25 25 24 23 23 21 21 20 20 20 21 22 22 22 22 22 22 22 21 21 21 21 21 21 21 22 22 22
28 29 29 28 26 26 26 25 26 27 28 28 28 28 27 26 27 27 26 25 23 23 24 24 24 23 23 23 24 24 24 25 25 24 24 24 24 24 24 23 24 24 24 24
28 29 29 29 29 28 28 26 26 28 29 29 28 28 27 26 26 27 27 26 25 26 27 27 26 26 26 26 26 26 26 26 26 27 27 27 27 27 27 26 26 26 26 26
30 29 29 29 30 29 29 28 28 29 30 30 29 28 28 28 28 29 28 28 28 28 28 28 28 29 29 30 29 29 29 29 29 29 29 30 30 30 29 28 29 28 29 29
31 31 30 29 29 31 29 30 30 30 31 31 31 30 30 29 29 29 29 30 30 30 31 31 31 31 31 31 31 32 32 32 32 32 31 32 31 31 32 32 31 31 31 31
32 32 32 31 30 31 30 30 30 31 32 32 32 32 32 32 32 32 31 32 31 31 32 32 32 32 32 32 33 34 34 34 34 34 33 33 33 33 33 33 33 33 33 32
33 33 33 33 32 31 30 30 31 32 33 33 32 33 33 33 33 32 33 33 32 32 32 33 33 33 33 34 34 34 34 34 34 34 34 35 34 34 34 34 34 34 33 33
33 33 34 34 34 33 32 30 30 31 31 31 32 32 33 34 33 33 33 33 33 33 33 33 34 34 34 34 35 35 35 34 34 34 35 35 35 35 35 35 36 36 35 35
33 34 35 35 35 34 32 31 31 31 30 31 31 32 33 34 34 33 33 33 34 34 34 35 34 34 34 34 35 35 34 34 34 34 34 35 36 37 37 37 37 37 36 37
33 33 34 35 34 33 32 31 30 30 30 31 31 32 33 34 34 34 34 34 34 34 34 34 34 34 33 34 34 34 35 34 35 35 35 36 36 37 38 38 37 37 36 36
33 33 33 33 33 33 31 31 30 31 31 32 32 32 33 34 35 35 35 34 33 33 33 34 34 34 35 35 34 33 34 34 34 34 34 34 35 36 36 37 38 37 37 37
32 32 33 32 32 32 31 31 31 32 32 32 33 34 34 34 33 33 34 35 35 34 33 34 35 34 33 33 32 32 32 34 34 34 35 35 35 35 36 36 37 37 37 37
31 31 31 31 32 33 33 32 32 32 32 32 32 32 33 34 34 35 35 35 34 34 34 34 33 33 33 33 33 32 33 34 34 34 34 34 34 35 35 35 35 36 37 37
Wind_Direction
221 220 216 215 215 215 220 227 227 226 251 273 287 296 307 315 324 335 346 355 0 2 7 13 19 22 22 23 25 28 29 36 42 54 58 59 73 101 127 149 161 178 183 182
219 216 214 217 221 229 236 238 236 244 251 261 277 289 297 304 309 317 326 339 345 346 351 357 8 13 14 17 18 20 18 17 23 35 33 29 42 74 99 144 173 192 193 194
217 216 220 225 231 237 239 239 237 248 251 261 274 276 284 297 304 313 319 326 333 337 336 337 348 358 1 7 7 5 3 4 11 13 354 339 339 320 154 170 185 201 198 205
222 220 226 229 233 235 237 233 239 246 246 249 261 272 275 285 296 304 311 316 317 326 329 331 339 345 348 354 356 356 358 355 349 342 337 320 295 270 240 225 227 228 229 228
226 231 235 233 233 235 232 235 245 247 252 255 256 262 265 275 284 292 299 302 301 312 316 317 321 326 331 337 339 338 338 341 339 332 320 311 303 280 255 247 246 251 248 246
227 228 234 237 235 237 238 243 246 250 250 253 256 260 266 271 281 283 283 286 291 303 306 302 303 302 305 315 320 321 320 318 318 317 317 309 294 281 269 260 262 262 257 252
231 233 238 240 238 240 241 243 246 248 248 251 255 263 270 277 281 280 275 277 283 289 293 294 296 295 287 294 301 302 305 305 304 303 302 300 295 283 272 267 265 268 263 258
234 234 238 243 245 246 244 246 248 252 249 252 257 262 271 276 276 275 272 271 276 283 288 287 289 289 288 286 285 287 291 294 295 295 292 292 291 284 273 268 266 266 265 264
239 235 234 238 242 244 248 248 252 255 255 255 258 263 267 272 274 271 269 271 270 277 283 288 293 294 285 286 283 278 280 282 286 288 288 288 287 285 278 273 270 271 267 266
244 239 236 237 239 244 246 251 251 253 255 256 257 260 269 268 268 267 265 265 269 274 279 283 288 287 284 283 284 277 274 277 280 282 283 282 281 279 274 270 269 271 273 274
247 244 237 240 244 243 244 247 251 252 256 256 257 259 264 268 268 268 268 266 266 275 280 280 278 280 280 276 276 274 271 275 278 281 281 280 278 277 275 273 270 271 272 273
250 248 241 240 240 241 242 243 247 250 252 257 259 261 264 266 267 269 266 267 268 273 274 276 281 283 283 280 281 277 275 275 278 279 277 278 278 276 276 276 275 274 272 272
250 249 247 242 238 239 242 244 245 249 252 255 258 261 264 266 265 267 267 267 269 270 270 276 281 282 284 284 285 281 278 278 277 277 274 275 276 276 275 275 277 275 274 273
250 249 249 248 244 242 242 243 245 247 249 253 257 260 261 263 267 270 272 269 266 271 271 274 278 278 280 283 284 282 281 279 277 276 277 277 277 275 275 275 273 272 271 273
250 250 251 251 248 246 243 244 244 245 248 252 255 257 260 262 266 268 271 272 268 270 271 275 276 276 276 278 280 282 281 278 276 275 274 275 275 274 273 273 273 273 273 274
251 252 252 251 249 248 247 246 245 245 248 251 254 256 258 261 263 265 268 271 273 275 274 276 277 277 276 276 276 277 277 276 275 273 272 272 272 272 272 269 270 272 274 274
253 253 251 249 249 248 245 245 245 247 247 250 255 257 259 261 263 266 270 272 273 274 276 276 277 277 278 276 275 275 276 277 275 274 273 274 273 272 273 273 273 273 274 274
255 255 252 251 250 247 244 244 246 248 250 252 255 257 260 264 266 267 268 270 269 271 272 274 276 276 277 278 277 275 276 276 275 274 274 273 273 273 273 275 274 273 273 273
254 253 253 253 254 250 246 245 247 249 250 253 255 257 260 265 267 267 268 269 271 273 274 274 275 276 277 279 278 276 275 275 274 273 273 272 272 273 274 274 274 273 272 273
251 251 253 254 255 254 252 249 250 251 252 252 255 258 260 263 266 267 269 271 272 273 273 273 274 275 277 278 278 277 276 276 275 274 273 272 273 273 273 274 273 272 272 272
250 252 254 256 257 257 258 255 253 253 255 256 258 259 261 263 267 270 270 270 270 271 271 272 273 275 276 277 277 278 277 276 276 275 273 273 272 272 273 273 272 271 271 271
250 251 252 255 257 258 259 258 256 256 257 258 260 262 263 264 266 268 270 271 270 271 272 273 273 274 276 276 276 277 276 276 276 274 272 272 272 272 272 271 271 270 271 272
250 251 252 255 257 258 258 259 258 258 258 259 261 262 263 264 265 266 268 268 270 271 273 273 273 273 275 275 276 275 275 274 274 274 273 272 271 271 271 271 270 269 270 271
250 252 253 254 255 258 259 260 259 260 260 261 261 262 263 265 265 265 267 268 269 271 273 275 275 276 275 275 277 277 275 274 274 274 273 273 273 272 272 273 272 271 271 271
251 253 253 253 254 256 258 260 261 262 262 263 262 263 265 264 264 267 269 270 272 274 274 275 277 278 277 276 275 276 276 276 276 275 274 273 272 273 273 273 272 272 272 273
248 250 253 254 256 259 261 263 265 265 265 265 265 264 265 265 266 268 270 271 273 276 276 277 277 276 277 278 277 276 275 275 275 275 274 273 273 273 273 274 273 272 273 274
Height
5901 5903 5904 5906 5907 5908 5908 5909 5909 5910 5911 5911 5911 5912 5912 5912 5911 5911 5911 5910 5908 5907 5906 5905 5904 5902 5900 5899 5898 5897 5896 5896 5895 5894 5894 5894 5894 5893 5893 5894 5894 5895 5896 5896
5899 5900 5902 5903 5904 5905 5905 5906 5907 5908 5908 5909 5909 5910 5911 5910 5910 5910 5909 5908 5907 5906 5905 5905 5904 5902 5901 5899 5898 5897 5896 5896 5895 5895 5895 5894 5894 5894 5894 5894 5894 5895 5895 5896
5896 5898 5898 5899 5901 5902 5902 5903 5905 5906 5906 5906 5907 5907 5907 5908 5908 5908 5908 5907 5906 5905 5905 5904 5903 5902 5900 5899 5898 5897 5896 5896 5895 5895 5894 5894 5894 5894 5894 5894 5894 5894 5894 5895
5892 5894 5895 5896 5897 5898 5899 5901 5902 5902 5903 5903 5905 5904 5905 5905 5905 5905 5905 5905 5905 5904 5903 5902 5902 5901 5900 5899 5898 5897 5896 5896 5895 5894 5894 5894 5893 5893 5893 5893 5893 5893 5893 5893
5889 5890 5891 5892 5894 5895 5897 5898 5898 5899 5900 5901 5901 5901 5902 5902 5901 5902 5902 5903 5903 5902 5901 5900 5899 5899 5898 5898 5897 5896 5896 5895 5894 5894 5893 5893 5892 5891 5891 5891 5891 5892 5892 5892
5885 5887 5888 5889 5891 5892 5893 5895 5895 5896 5896 5897 5898 5898 5898 5898 5898 5897 5898 5899 5900 5899 5898 5898 5897 5896 5896 5896 5895 5895 5895 5894 5893 5892 5892 5891 5891 5890 5890 5889 5890 5890 5890 5890
5882 5883 5884 5885 5887 5888 5889 5890 5891 5892 5892 5893 5894 5893 5895 5894 5894 5893 5893 5894 5895 5896 5895 5895 5895 5893 5892 5892 5893 5893 5893 5892 5892 5891 5890 5889 5889 5888 5888 5887 5887 5887 5887 5888
5877 5880 5881 5881 5883 5884 5885 5886 5887 5888 5888 5889 5889 5889 5891 5890 5889 5889 5890 5891 5891 5892 5892 5892 5891 5890 5889 5889 5890 5890 5890 5890 5889 5888 5888 5887 5887 5886 5886 5885 5885 5885 5885 5885
5873 5875 5876 5877 5878 5880 5881 5881 5882 5883 5883 5883 5884 5885 5886 5886 5885 5885 5886 5887 5888 5888 5888 5888 5888 5888 5887 5887 5887 5887 5887 5887 5886 5886 5885 5885 5884 5883 5882 5882 5882 5882 5882 5881
5868 5870 5872 5873 5874 5875 5876 5877 5878 5878 5878 5878 5879 5880 5882 5881 5881 5882 5883 5883 5884 5884 5884 5884 5884 5884 5884 5884 5883 5883 5883 5883 5883 5883 5882 5881 5881 5880 5879 5879 5879 5878 5878 5878
5863 5865 5868 5868 5869 5870 5871 5872 5872 5872 5873 5873 5873 5877 5876 5876 5876 5877 5878 5878 5879 5879 5879 5879 5880 5880 5879 5879 5879 5879 5878 5879 5878 5878 5878 5878 5877 5876 5876 5875 5874 5874 5874 5874
5857 5859 5861 5863 5864 5864 5865 5865 5866 5868 5868 5868 5868 5872 5871 5871 5871 5872 5872 5873 5874 5875 5875 5874 5874 5875 5875 5874 5874 5873 5873 5874 5873 5873 5873 5872 5872 5871 5870 5870 5869 5869 5869 5868
5851 5852 5854 5857 5860 5860 5859 5859 5860 5861 5862 5862 5863 5866 5865 5865 5866 5866 5867 5868 5868 5869 5870 5869 5869 5870 5870 5869 5869 5868 5868 5868 5868 5868 5867 5866 5866 5865 5864 5864 5863 5863 5863 5863
5844 5845 5848 5850 5851 5852 5853 5854 5854 5854 5855 5856 5857 5858 5859 5860 5860 5861 5861 5862 5862 5862 5863 5863 5863 5864 5864 5864 5863 5863 5863 5863 5862 5862 5861 5860 5859 5858 5858 5857 5857 5857 5856 5856
5837 5838 5840 5842 5844 5845 5846 5847 5848 5848 5848 5849 5851 5851 5853 5853 5854 5854 5855 5855 5855 5856 5856 5856 5857 5857 5858 5857 5857 5856 5856 5856 5855 5854 5853 5853 5852 5851 5850 5850 5850 5849 5849 5848
5829 5831 5832 5834 5836 5837 5838 5840 5841 5842 5842 5843 5844 5845 5847 5847 5847 5848 5848 5848 5849 5849 5849 5849 5849 5849 5850 5850 5849 5849 5848 5848 5847 5846 5845 5844 5843 5842 5841 5841 5841 5841 5841 5840
5821 5823 5824 5826 5827 5828 5831 5833 5833 5834 5835 5836 5837 5839 5840 5840 5840 5841 5841 5841 5841 5841 5841 5841 5841 5841 5841 5840 5840 5840 5839 5839 5839 5838 5837 5836 5834 5833 5833 5833 5833 5832 5832 5832
5813 5814 5815 5817 5819 5820 5825 5825 5826 5826 5828 5829 5830 5831 5832 5833 5833 5833 5833 5833 5833 5833 5833 5833 5833 5832 5831 5831 5830 5829 5829 5829 5829 5828 5827 5826 5825 5825 5824 5824 5824 5823 5823 5823
5804 5806 5807 5808 5809 5811 5815 5816 5818 5819 5820 5821 5822 5823 5824 5824 5825 5825 5825 5825 5824 5824 5824 5824 5823 5823 5822 5822 5821 5820 5819 5818 5818 5817 5817 5816 5815 5815 5815 5814 5814 5814 5814 5813
5795 5796 5798 5799 5800 5802 5807 5808 5809 5811 5811 5812 5813 5814 5815 5816 5816 5817 5817 5816 5816 5815 5815 5814 5814 5813 5812 5812 5811 5810 5809 5808 5807 5806 5806 5806 5805 5805 5805 5804 5804 5803 5803 5803
5787 5787 5789 5790 5791 5793 5797 5799 5801 5803 5804 5804 5805 5806 5806 5806 5807 5808 5807 5807 5806 5806 5805 5805 5804 5804 5803 5802 5801 5800 5799 5798 5798 5797 5796 5795 5795 5795 5794 5794 5793 5793 5792 5793
5777 5779 5780 5781 5783 5787 5787 5790 5792 5793 5794 5795 5796 5797 5797 5797 5797 5797 5797 5797 5797 5796 5795 5795 5794 5794 5793 5791 5790 5789 5788 5788 5787 5786 5785 5784 5784 5784 5784 5783 5782 5782 5782 5782
5768 5771 5772 5773 5775 5776 5778 5780 5782 5784 5785 5786 5787 5788 5788 5788 5788 5788 5788 5787 5787 5786 5785 5784 5784 5783 5782 5781 5780 5779 5778 5777 5776 5775 5775 5774 5773 5773 5772 5772 5771 5771 5771 5771
5759 5761 5762 5764 5765 5767 5769 5771 5773 5775 5775 5776 5777 5777 5778 5778 5778 5778 5778 5777 5777 5776 5775 5774 5773 5772 5771 5770 5769 5768 5767 5766 5765 5765 5764 5763 5763 5762 5762 5761 5760 5760 5761 5760
5751 5753 5754 5755 5758 5759 5761 5763 5764 5765 5766 5766 5767 5767 5767 5767 5767 5768 5767 5766 5766 5765 5765 5764 5763 5762 5760 5759 5758 5757 5757 5756 5755 5754 5754 5753 5752 5751 5750 5750 5749 5749 5750 5750
5744 5745 5746 5748 5751 5752 5754 5754 5755 5756 5756 5756 5757 5757 5757 5757 5757 5757 5757 5757 5756 5755 5755 5754 5753 5752 5751 5750 5749 5748 5747 5746 5745 5744 5743 5741 5741 5740 5740 5739 5739 5739 5739 5739